STARLINK-34846

Last updated on Fri Dec 19 2025 00:02:09 GMT+0000 (Coordinated Universal Time)

1 66972U 25288P 25352.58336806 -.01345671 00000+0 -59547-2 0 9991 2 66972 43.0012 131.3638 0001472 270.2044 317.8063 15.86213902 2771
UTC large
Height (km)
Speed (km/s)
/
Latitude / Longitude
Inclination (degrees)
Orbital Period (minutes)
Azimuth
Elevation
Range (km)
Doppler Factor

Next 0 passes for location: London (51.5072 / 0.1276)

Sorry there are no passes over London.